Orbital Elements at Epoch 2459200.5 (2020-Dec-17.0) TDB
Reference: JPL 22 (heliocentric ecliptic J2000)
Element | Value | Uncertainty (1-sigma) | Units |
e | .2246237819696956 | 4.8438e-08 | |
a | 2.308114265921985 | 5.3847e-09 | au |
q | 1.789656910292381 | 1.122e-07 | au |
i | .3747586530636914 | 5.6577e-06 | deg |
node | 172.0437938231902 | 0.00040036 | deg |
peri | 150.754553337048 | 0.0004006 | deg |
M | 42.48787356605735 | 1.0213e-05 | deg |
tp | 2459049.336520476477 (2020-Jul-18.83652048) | 3.641e-05 | TDB |
period | 1280.809041757797 3.51 | 4.4821e-06 1.227e-08 | d yr |
n | .2810723443253741 | 9.8359e-10 | deg/d |
Q | 2.826571621551589 | 6.5943e-09 | au |
|
| | Orbit Determination Parameters
Additional Information
|